星链-1878 (STARLINK-1878 )

导读 | 豆包AI

STARLINK-1878是美国太空探索技术公司星链星座中的一颗卫星,于2020年11月25日发射入轨,属于星链互联网星座组网卫星。它依靠太阳能供电,运行在近地轨道,旨在为全球提供高速低延迟的宽带互联网服务,是星链星座大规模组网部署进程中的组成单元。

Basic Information
目录编号:
47163
目录名称:
STARLINK-1878
国际标识:
2020-088AT
轨道中心:
EARTH
卫星名称:
星链-1878
卫星全名:
星链-1878 (STARLINK-1878 )
卫星状态:
已陨落 最后检测时间 2025-01-23
发射日期:
2020-11-25 UTC
国别 :
美国 (US)
星等 :
--
Orbit Information
数据来源 国际轨道数据
星历时间: 2025-01-23T21:56:28+0800
轨道信息已过期414天
半长轴: 6538.207km
偏心率: 0.0005271
轨道倾角: 53.019°
近地点辐角 187.420°
升交点赤经 321.561°
平近点角 328.666°
近地点: 156.625km
远地点: 163.519km
周期: 87.690分钟
每日圈数: 16.421575
Detailed Information
固有亮度:
5
最大亮度:
2.5
卫星平台:
Starlink V1.0
覆盖范围:
全球
运营商:
太空探索技术公司
运营商所在国:
美国
制造商(研发单位):
太空探索技术公司
制造商所在国:
美国
使用方式:
暂无
Satellite Introduction
星链(Starlink)计划是由太空探索技术公司(SpaceX)提出的一个巨型低轨卫星互联网星座项目,计划在2019年至2024年间在太空搭建由约1.2万颗卫星组成的“星链”网络,其中1584颗将部署在地球上空550千米处的近地轨道,并从2020年开始工作。该卫星仍在工作。